Theta_e
297 296 296 295 293 292 291 290 290 290 289 290 290 289 289 288 288 288 287 287 287 287
296 295 295 294 293 292 291 291 290 290 289 289 289 289 288 287 287 288 290 289 288 289
295 295 295 294 292 291 291 291 290 289 289 288 288 289 288 287 288 289 289 289 289 289
293 294 294 293 292 291 291 290 290 289 288 288 288 289 288 288 289 288 288 289 288 288
292 292 292 291 291 290 289 290 289 289 288 288 288 288 288 288 289 287 287 288 288 288
290 290 288 288 288 288 287 287 288 288 288 287 287 287 288 287 287 286 288 287 287 287
288 288 288 287 287 287 287 286 286 287 286 286 286 286 286 286 287 284 284 285 287 288
287 286 285 285 286 284 286 286 286 285 284 285 286 287 285 286 288 285 282 282 285 287
285 284 285 286 285 285 284 283 284 285 284 283 285 288 289 288 286 286 283 282 282 284
286 285 286 286 286 285 285 285 285 285 283 283 283 289 288 288 286 284 283 283 282 282
286 286 285 284 284 284 284 284 283 282 282 282 283 289 289 288 283 281 281 281 281 282
286 286 284 284 284 284 283 283 282 283 282 282 282 289 290 287 281 281 279 278 278 279
287 286 285 285 284 285 284 283 283 282 282 282 282 289 290 286 283 281 280 276 276 281
287 286 286 286 285 284 283 282 282 281 281 281 282 285 289 288 282 282 279 279 277 278
Wind_Speed
9 7 7 10 9 8 9 7 8 7 6 7 6 5 5 4 4 5 5 6 4 3
8 10 10 9 8 7 7 7 9 8 7 7 6 6 6 4 5 5 3 4 4 2
8 9 9 9 10 9 8 9 10 9 9 8 7 7 6 5 5 5 3 3 4 3
7 8 9 9 8 9 9 11 11 10 10 9 8 7 7 6 6 5 5 4 4 5
6 7 9 10 9 9 10 10 11 11 11 10 9 8 8 8 8 7 6 7 5 5
6 7 7 8 9 9 10 9 9 10 11 10 9 9 8 7 7 7 7 6 5 6
6 7 8 8 9 10 9 10 10 9 9 9 9 9 8 8 7 6 6 6 7 6
6 4 5 6 7 7 9 8 8 9 8 8 9 7 8 8 8 7 6 5 6 8
5 6 7 8 8 8 7 7 9 9 10 11 8 17 17 13 9 9 7 7 5 6
8 9 9 9 10 11 11 10 11 11 10 10 8 20 20 18 8 8 7 7 7 5
10 11 11 12 13 12 10 14 12 11 10 10 8 21 20 16 7 5 6 6 7 7
11 12 12 13 14 12 11 10 11 10 11 11 9 20 20 15 7 6 6 5 5 6
11 13 13 14 14 12 11 10 8 9 10 10 11 19 20 15 7 7 6 4 5 10
10 13 13 13 12 11 11 9 9 9 8 10 10 13 21 22 9 7 7 6 5 4
Wind_Direction
166 167 173 178 173 178 179 172 162 157 148 146 141 142 141 129 120 115 107 108 93 90
163 167 173 174 173 174 156 161 160 155 148 142 146 148 145 135 125 122 121 133 125 115
174 174 167 161 173 171 158 156 156 153 151 147 155 151 143 138 137 127 140 139 161 146
173 169 162 168 163 167 157 159 161 160 154 156 157 150 141 130 132 142 155 155 154 175
168 163 166 168 165 158 163 164 161 160 159 160 160 154 149 152 156 162 168 162 157 178
185 172 175 167 156 159 158 162 157 162 166 162 159 155 156 151 152 156 171 155 167 168
199 189 181 170 163 161 165 163 164 169 163 157 154 153 151 150 148 150 159 167 173 168
211 178 149 148 153 142 160 169 162 156 154 146 151 156 155 150 161 154 150 157 161 175
199 170 173 164 159 158 162 154 156 167 164 160 167 173 166 162 165 176 165 167 170 167
205 191 182 176 172 177 180 174 179 179 175 171 164 173 175 176 172 175 172 170 173 166
215 199 185 181 188 185 179 186 185 182 178 166 174 176 178 174 161 163 163 167 171 166
228 207 190 192 191 188 180 183 187 181 172 174 175 179 176 165 157 163 164 168 169 163
230 218 200 196 193 187 187 189 175 177 183 174 170 183 180 169 165 168 165 168 179 184
229 219 209 200 191 180 177 166 173 176 175 176 175 183 185 180 175 175 167 175 182 187